Regional Weather Roundup
Issued by NWS

Home | Current Version | Previous Version | Graphics & Text | Print | Product List | Glossary Off
Versions: 1 2 3 4 5 6 7 8 9 10 11 12 13 14 15 16 17 18 19 20 21 22 23 24 25 26 27 28 29 30 31 32 33 34 35 36 37 38 39 40 41 42 43 44 45 46 47 48 49 50

000
ASUS43 KFSD 221310
RWRSD

WEATHER ROUNDUP FOR SOUTH DAKOTA
NATIONAL WEATHER SERVICE SIOUX FALLS SD
800 AM CDT FRI JUN 22 2018

NOTE: "FAIR" INDICATES FEW OR NO CLOUDS BELOW 12,000 FEET WITH NO
SIGNIFICANT WEATHER AND/OR OBSTRUCTIONS TO VISIBILITY.


SDZ001>005-009-010-012>017-221400-
NORTHWEST AND NORTH CENTRAL SOUTH DAKOTA

CITY           SKY/WX    TMP DP  RH WIND       PRES   REMARKS
BUFFALO          N/A     61  54  77 SE7       29.80F
FAITH            N/A     63  58  83 SE13      29.89F
MOBRIDGE       SUNNY     65  61  87 S6        29.90R
$$

SDZ012>016-024>037-041>051-057-063-072>074-221400-
SOUTHWEST AND SOUTH CENTRAL SOUTH DAKOTA

CITY           SKY/WX    TMP DP  RH WIND       PRES   REMARKS
RAPID CTY ARPT PTSUNNY   61  55  81 S7        29.92F
PIERRE         MOSUNNY   63  58  83 MISG      29.91F
CUSTER         SUNNY     53  48  83 NE3       30.00F
ELLSWORTH AFB  MOSUNNY   62  57  85 S7        29.91F
PHILIP         MOSUNNY   63  58  83 S3        29.91S
PINE RIDGE     CLOUDY    63  54  72 VRB6      29.94F
SPEARFISH      CLOUDY    63  52  67 NW7       29.92F
WINNER         FAIR      64  57  78 SW6       29.95F
$$

SDZ004>011-016>023-039-040-221400-
NORTHEAST SOUTH DAKOTA

CITY           SKY/WX    TMP DP  RH WIND       PRES   REMARKS
ABERDEEN       MOSUNNY   68  61  78 S9        29.91R
WATERTOWN      CLOUDY    63  63 100 SW5       29.93R
SISSETON         N/A     68  61  78 CALM      29.90R
$$

SDZ017-020-022-023-036>040-048>070-221400-
SOUTHEAST SOUTH DAKOTA

CITY           SKY/WX    TMP DP  RH WIND       PRES   REMARKS
SIOUX FALLS    LGT RAIN  62  59  90 W5        29.94R
HURON          MOSUNNY   65  60  84 CALM      29.92S
CHAMBERLAIN    MOSUNNY   64  64  99 SW6       29.96R
MITCHELL       MOSUNNY   65  59  81 CALM      29.93S
$$

ABBREVIATIONS USED IN REMARKS
   TC - TEMPERATURE IN CELSIUS
  WCI - WIND CHILL INDEX
   HX - HEAT INDEX
  VSB - VISIBILITY





USA.gov is the U.S. government's official web portal to all federal, state and local government web resources and services.